Weather History for KRNP - December, 2012

Change the Weather History Date:

Sunday, December 9, 2012

  Actual Average (KFNT) Record (KFNT)
Temperature  
Mean Temperature 33 °F 29 °F  
Max Temperature 34 °F 36 °F 59 °F (1946)
Min Temperature 32 °F 23 °F -4 °F (1964)
Degree Days  
Heating Degree Days 32 36  
Month to date heating degree days 306  
Since 1 July heating degree days 1787  
Cooling Degree Days 0 0  
Month to date cooling degree days 0  
Year to date cooling degree days 531  
Moisture  
Dew Point 32 °F    
Average Humidity 95    
Maximum Humidity 100    
Minimum Humidity 87    
Precipitation  
Precipitation 0.00 in 0.07 in 0.49 in (1953)
Month to date precipitation 0.62  
Year to date precipitation 30.07  
Snow  
Snow 0.00 in 0.40 in 3.50 in (2005)
Month to date snowfall 2.9  
Since 1 July snowfall 5.8  
Snow Depth -    
Sea Level Pressure  
Sea Level Pressure 29.98 in    
Wind  
Wind Speed 5 mph (ENE)    
Max Wind Speed 14 mph    
Max Gust Speed 20 mph    
Visibility 7 miles    
Events Snow    
T = Trace of Precipitation, MM = Missing Value Source: NWS Daily Summary

Daily Weather History Graph

Daily Weather History Graph

Search for Another Location

Airport or City:

Trip Planner

Search our weather history database for the weather conditions in past years. The results will help you decide how hot, cold, wet, or windy it might be!

Date:

Astronomy

Dec. 09, 2012 Rise Set
Actual Time 7:56 AM EST 5:01 PM EST
Civil Twilight 7:24 AM EST 5:33 PM EST
Nautical Twilight 6:48 AM EST 6:09 PM EST
Astronomical Twilight 6:14 AM EST 6:44 PM EST
Moon 3:23 AM EST (12/9) 2:12 PM EST (12/9)
Length of Visible Light 10h 09m
Length of Day
9h 05m
Waning Crescent, 19% of the Moon is Illuminated
Dec 9
Waning Crescent
Dec 13
New
Dec 20
First Quarter
Dec 28
Full
Jan 4
Last Quarter

Hourly Weather History & Observations

Time (EST) Temp. Windchill Dew Point Humidity Pressure Visibility Wind Dir Wind Speed Gust Speed Precip Events Conditions
12:15 AM 32.5 °F 29.3 °F 31.1 °F 94% 30.17 in 10.0 mi NE 3.5 mph - N/A   Overcast
12:34 AM 32.5 °F 29.3 °F 31.1 °F 94% 30.18 in 10.0 mi NE 3.5 mph - N/A   Mostly Cloudy
12:55 AM 32.4 °F - 31.1 °F 95% 30.18 in 10.0 mi Calm Calm - N/A   Clear
1:14 AM 32.4 °F 29.1 °F 31.1 °F 95% 30.17 in 10.0 mi NE 3.5 mph - N/A   Scattered Clouds
1:35 AM 32.4 °F 27.9 °F 30.9 °F 94% 30.18 in 10.0 mi ENE 4.6 mph - N/A   Scattered Clouds
1:55 AM 32.5 °F 28.1 °F 30.7 °F 93% 30.18 in 10.0 mi NE 4.6 mph - N/A   Overcast
2:15 AM 32.4 °F 27.9 °F 30.7 °F 94% 30.17 in 10.0 mi ENE 4.6 mph - N/A   Mostly Cloudy
2:35 AM 32.4 °F 29.1 °F 30.6 °F 93% 30.17 in 10.0 mi ENE 3.5 mph - N/A   Mostly Cloudy
2:55 AM 32.4 °F 27.9 °F 30.6 °F 93% 30.17 in 10.0 mi NE 4.6 mph - N/A   Mostly Cloudy
3:15 AM 32.2 °F 28.9 °F 30.2 °F 92% 30.17 in 10.0 mi NE 3.5 mph - N/A   Mostly Cloudy
3:35 AM 32.2 °F 27.7 °F 30.2 °F 92% 30.17 in 10.0 mi ENE 4.6 mph - N/A   Overcast
3:55 AM 32.2 °F 27.7 °F 30.0 °F 92% 30.16 in 10.0 mi ENE 4.6 mph - N/A   Overcast
4:15 AM 32.2 °F 27.7 °F 30.0 °F 92% 30.15 in 10.0 mi ENE 4.6 mph - N/A   Overcast
4:35 AM 32.2 °F - 29.8 °F 91% 30.17 in 10.0 mi Calm Calm - N/A   Overcast
4:55 AM 32.2 °F 28.9 °F 29.7 °F 90% 30.16 in 10.0 mi East 3.5 mph - N/A   Overcast
5:15 AM 32.0 °F - 29.7 °F 91% 30.17 in 10.0 mi Calm Calm - N/A   Scattered Clouds
5:35 AM 32.0 °F 28.7 °F 29.8 °F 92% 30.17 in 10.0 mi ENE 3.5 mph - N/A   Mostly Cloudy
5:54 AM 32.0 °F 27.5 °F 29.8 °F 92% 30.16 in 10.0 mi East 4.6 mph - N/A   Overcast
6:15 AM 32.2 °F 27.7 °F 30.2 °F 92% 30.16 in 10.0 mi East 4.6 mph - N/A   Overcast
6:35 AM 32.4 °F 27.9 °F 30.2 °F 92% 30.17 in 10.0 mi ENE 4.6 mph - N/A   Overcast
6:55 AM 32.5 °F 27.1 °F 30.2 °F 91% 30.16 in 10.0 mi East 5.8 mph - N/A   Overcast
7:15 AM 32.5 °F 27.1 °F 30.2 °F 91% 30.15 in 10.0 mi ENE 5.8 mph - N/A   Overcast
7:35 AM 32.5 °F 28.1 °F 30.6 °F 92% 30.15 in 10.0 mi East 4.6 mph - N/A   Overcast
7:55 AM 32.7 °F 28.3 °F 30.9 °F 93% 30.15 in 10.0 mi East 4.6 mph - N/A   Overcast
8:15 AM 32.9 °F 26.7 °F 31.1 °F 93% 30.14 in 10.0 mi East 6.9 mph - N/A   Overcast
8:35 AM 33.3 °F 26.4 °F 31.6 °F 94% 30.12 in 10.0 mi East 8.1 mph - N/A   Overcast
8:55 AM 33.4 °F 26.6 °F 31.5 °F 92% 30.12 in 10.0 mi East 8.1 mph - N/A   Scattered Clouds
9:15 AM 33.8 °F 28.6 °F 31.6 °F 92% 30.11 in 10.0 mi ENE 5.8 mph - N/A   Mostly Cloudy
9:35 AM 34.0 °F 27.2 °F 31.8 °F 92% 30.10 in 10.0 mi East 8.1 mph - N/A   Overcast
9:55 AM 34.2 °F 27.5 °F 31.6 °F 90% 30.09 in 10.0 mi East 8.1 mph - N/A   Overcast
10:15 AM 34.3 °F 27.0 °F 31.3 °F 89% 30.09 in 10.0 mi East 9.2 mph 16.1 mph N/A   Overcast
10:35 AM 34.3 °F 27.0 °F 31.1 °F 88% 30.08 in 10.0 mi East 9.2 mph - N/A   Overcast
10:55 AM 34.3 °F 28.4 °F 30.9 °F 87% 30.08 in 10.0 mi East 6.9 mph - N/A   Overcast
11:14 AM 34.7 °F 26.9 °F 31.5 °F 88% 30.06 in 10.0 mi ENE 10.4 mph - N/A   Overcast
11:35 AM 34.9 °F 28.3 °F 31.8 °F 89% 30.05 in 10.0 mi ENE 8.1 mph - N/A   Overcast
11:55 AM 34.7 °F 28.1 °F 32.0 °F 90% 30.05 in 10.0 mi ENE 8.1 mph - N/A   Overcast
12:14 PM 34.7 °F 28.8 °F 32.0 °F 90% 30.03 in 10.0 mi East 6.9 mph - N/A   Overcast
12:35 PM 34.7 °F 26.9 °F 32.0 °F 90% 30.02 in 10.0 mi East 10.4 mph - N/A   Overcast
1:15 PM 34.3 °F 27.7 °F 32.2 °F 92% 29.97 in 10.0 mi ENE 8.1 mph - N/A   Overcast
1:35 PM 34.5 °F 27.3 °F 32.2 °F 91% 29.96 in 10.0 mi ENE 9.2 mph 18.4 mph N/A   Overcast
1:55 PM 34.3 °F 25.5 °F 32.5 °F 93% 29.92 in 7.0 mi ENE 12.7 mph 19.6 mph N/A   Overcast
2:15 PM 34.2 °F 26.2 °F 32.9 °F 95% 29.90 in 5.0 mi ENE 10.4 mph 18.4 mph N/A Snow Light Snow
2:35 PM 33.8 °F 24.8 °F 32.9 °F 96% 29.90 in 2.5 mi ENE 12.7 mph - N/A Snow Light Snow
2:55 PM 33.8 °F 25.3 °F 32.9 °F 96% 29.90 in 3.0 mi ENE 11.5 mph - N/A   Overcast
3:15 PM 33.6 °F 25.6 °F 33.1 °F 98% 29.88 in 4.0 mi ENE 10.4 mph - N/A   Overcast
3:35 PM 33.4 °F 25.9 °F 32.9 °F 98% 29.88 in 5.0 mi ENE 9.2 mph - N/A   Overcast
3:54 PM 33.3 °F 24.1 °F 32.5 °F 97% 29.87 in 5.0 mi ENE 12.7 mph 17.3 mph N/A Snow Light Snow
4:15 PM 33.1 °F 23.4 °F 32.5 °F 98% 29.85 in 4.0 mi East 13.8 mph - N/A Snow Light Snow
4:35 PM 33.1 °F 26.1 °F 32.5 °F 98% 29.86 in 5.0 mi East 8.1 mph 16.1 mph N/A   Overcast
4:54 PM 32.9 °F 25.9 °F 32.2 °F 97% 29.85 in 7.0 mi East 8.1 mph - N/A   Overcast
5:15 PM 32.9 °F 25.9 °F 32.4 °F 98% 29.84 in 5.0 mi East 8.1 mph - N/A   Overcast
5:35 PM 32.9 °F 26.7 °F 32.2 °F 97% 29.84 in 5.0 mi East 6.9 mph - N/A   Overcast
5:55 PM 32.5 °F 27.1 °F 32.2 °F 99% 29.84 in 4.0 mi East 5.8 mph - N/A   Overcast
6:15 PM 32.4 °F 24.6 °F 32.2 °F 99% 29.82 in 3.0 mi ENE 9.2 mph - N/A   Overcast
6:35 PM 32.2 °F 27.7 °F 32.2 °F 100% 29.81 in 3.0 mi ENE 4.6 mph - N/A   Overcast
6:55 PM 32.2 °F 25.0 °F 32.2 °F 100% 29.79 in 2.5 mi ENE 8.1 mph - N/A   Overcast
7:15 PM 32.0 °F 27.5 °F 32.0 °F 100% 29.79 in 3.0 mi ENE 4.6 mph - N/A   Overcast
7:35 PM 32.0 °F 26.4 °F 32.0 °F 100% 29.79 in 2.5 mi ENE 5.8 mph - N/A   Overcast
7:55 PM 32.0 °F 27.5 °F 32.0 °F 100% 29.77 in 2.5 mi NE 4.6 mph - N/A   Overcast
8:15 PM 32.0 °F 27.5 °F 32.0 °F 100% 29.75 in 3.0 mi NE 4.6 mph - N/A   Overcast
8:34 PM 32.0 °F 28.7 °F 32.0 °F 100% 29.74 in 3.0 mi ENE 3.5 mph - N/A   Overcast
8:55 PM 32.0 °F 27.5 °F 32.0 °F 100% 29.74 in 3.0 mi ENE 4.6 mph - N/A   Overcast
9:15 PM 32.0 °F 27.5 °F 32.0 °F 100% 29.72 in 2.5 mi ENE 4.6 mph - N/A   Overcast
9:34 PM 32.0 °F 28.7 °F 32.0 °F 100% 29.71 in 2.5 mi NE 3.5 mph - N/A   Overcast
9:55 PM 32.2 °F - 32.2 °F 100% 29.70 in 3.0 mi Calm Calm - N/A   Overcast
10:15 PM 32.2 °F - 32.2 °F 100% 29.70 in 3.0 mi Calm Calm - N/A   Overcast
10:35 PM 32.2 °F 28.9 °F 32.2 °F 100% 29.68 in 2.0 mi East 3.5 mph - N/A   Overcast
10:55 PM 32.2 °F - 32.2 °F 100% 29.67 in 2.5 mi Calm Calm - N/A   Overcast
11:15 PM 32.4 °F - 32.4 °F 100% 29.67 in 2.5 mi Calm Calm - N/A   Overcast
11:35 PM 32.4 °F - 32.4 °F 100% 29.67 in 2.5 mi Calm Calm - N/A   Overcast
11:55 PM 32.4 °F - 32.4 °F 100% 29.65 in 1.8 mi Calm Calm - N/A   Overcast